Weather History for CXVN - July, 2013

Change the Weather History Date:

Friday, July 19, 2013

  Actual Average Record
Temperature  
Mean Temperature 81 °F -  
Max Temperature 92 °F - - ()
Min Temperature 70 °F - - ()
Cooling Degree Days 16    
Growing Degree Days 31 (Base 50)    
Moisture  
Dew Point 72 °F    
Average Humidity 71    
Maximum Humidity 92    
Minimum Humidity 41    
Precipitation  
Precipitation 0.55 in - - ()
Sea Level Pressure  
Sea Level Pressure 29.76 in    
Wind  
Wind Speed 12 mph ()    
Max Wind Speed 24 mph    
Max Gust Speed 41 mph    
T = Trace of Precipitation, MM = Missing Value Source: Averaged Metar Reports

Daily Weather History Graph

Daily Weather History Graph

Search for Another Location

Airport or City:

Trip Planner

Search our weather history database for the weather conditions in past years. The results will help you decide how hot, cold, wet, or windy it might be!

Date:

Astronomy

Jul. 19, 2013 Rise Set
Actual Time 5:55 AM EDT 8:52 PM EDT
Civil Twilight 5:21 AM EDT 9:25 PM EDT
Nautical Twilight 4:38 AM EDT 10:08 PM EDT
Astronomical Twilight 3:47 AM EDT 10:58 PM EDT
Moon 5:52 PM EDT (7/19) 2:35 AM EDT (7/19)
Length of Visible Light 16h 04m
Length of Day
14h 56m
Waxing Gibbous, 86% of the Moon is Illuminated
Jul 19
Waxing Gibbous
Jul 22
Full
Jul 29
Last Quarter
Aug 6
New
Aug 14
First Quarter

Hourly Weather History & Observations

Time (EDT) Temp. Heat Index Dew Point Humidity Pressure Visibility Wind Dir Wind Speed Gust Speed Precip Events Conditions
12:00 AM 78.8 °F - 72.3 °F 80% 29.88 in - SW 10.4 mph - N/A   Unknown
1:00 AM 80.1 °F 84.1 °F 72.7 °F 78% 29.87 in - SW 10.4 mph - N/A   Unknown
2:00 AM 80 °F - 72 °F 72% 29.86 in - SW 10.4 mph - -  
2:00 AM 80.2 °F 84.3 °F 72.5 °F 77% 29.86 in - SW 10.4 mph - N/A   Unknown
3:00 AM 80.2 °F 84.3 °F 72.3 °F 77% 29.84 in - SW 11.5 mph 17.3 mph N/A   Unknown
4:00 AM 80.4 °F 84.7 °F 72.7 °F 77% 29.81 in - WSW 11.5 mph 18.4 mph N/A   Unknown
5:00 AM 80.1 °F 84.2 °F 72.9 °F 79% 29.81 in - SW 10.4 mph - N/A   Unknown
6:00 AM 79.9 °F - 73.6 °F 81% 29.81 in - SW 9.2 mph - N/A   Unknown
7:00 AM 81.0 °F 86.2 °F 73.9 °F 79% 29.81 in - WSW 11.5 mph 18.4 mph N/A   Unknown
8:00 AM 83 °F - 74 °F 69% 29.81 in - WSW 11.5 mph - -  
8:00 AM 83.1 °F 90.1 °F 74.3 °F 75% 29.81 in - WSW 11.5 mph 17.3 mph N/A   Unknown
9:00 AM 85.6 °F 93.4 °F 74.1 °F 68% 29.81 in - WSW 11.5 mph 19.6 mph N/A   Unknown
10:00 AM 87.8 °F 97.6 °F 75.0 °F 66% 29.79 in - West 15.0 mph 21.9 mph N/A   Unknown
11:00 AM 89.4 °F 97.8 °F 73.6 °F 59% 29.78 in - West 15.0 mph 27.6 mph N/A   Unknown
12:00 PM 90.7 °F 100.1 °F 73.9 °F 58% 29.76 in - WSW 15.0 mph 23.0 mph N/A   Unknown
1:00 PM 91.0 °F 99.3 °F 73.0 °F 55% 29.74 in - SW 17.3 mph 26.5 mph N/A   Unknown
2:00 PM 92 °F - 71 °F 41% 29.71 in - WSW 20.7 mph - -  
2:00 PM 91.8 °F 98.6 °F 71.1 °F 51% 29.71 in - WSW 20.7 mph 31.1 mph N/A   Unknown
3:00 PM 92.5 °F 99.6 °F 71.6 °F 50% 29.70 in - WSW 18.4 mph 31.1 mph N/A   Unknown
4:00 PM 91.4 °F 98.9 °F 72.0 °F 53% 29.67 in - WSW 18.4 mph 26.5 mph N/A   Unknown
5:00 PM 90.9 °F 98.3 °F 72.1 °F 54% 29.65 in - SW 17.3 mph 26.5 mph N/A   Unknown
6:00 PM 89.8 °F 96.5 °F 71.4 °F 55% 29.64 in - SW 17.3 mph 24.2 mph N/A   Unknown
7:00 PM 71.2 °F - 66.9 °F 86% 29.72 in - WNW 13.8 mph 21.9 mph 0.07 in   Unknown
8:00 PM 74 °F - 71 °F 86% 29.68 in - WSW 9.2 mph - -  
8:00 PM 74.1 °F - 70.5 °F 88% 29.68 in - WSW 9.2 mph - 0.46 in   Unknown
9:00 PM 71.1 °F - 66.7 °F 86% 29.73 in - NW 24.2 mph 41.4 mph 0.21 in   Unknown
10:00 PM 70.3 °F - 68.0 °F 92% 29.72 in - West 19.6 mph 32.2 mph 0.51 in   Unknown
11:00 PM 72.1 °F - 67.8 °F 86% 29.68 in - SSW 10.4 mph - 0.11 in   Unknown